Location: Molveno
(46.1500°N, 10.9667°E)
Time: 08:05:15
(UTC+00:00)

SPOT 3 Rocket - Pass Details

Date: 05 July 2020
Orbit: 779 x 795 km, 98.8° (Epoch: 06 August)

Event Time Altitude Azimuth Distance (km) Brightness Sun altitude
Rises 19:55:16 0° 180° (S) 3,273 6.3 -6.9°
Reaches altitude 10° 19:57:39 10° 185° (S) 2,351 5.7 -7.2°
Maximum altitude 20:02:40 49° 260° (W) 1,022 4.5 -7.9°
Drops below altitude 10° 20:07:45 10° 335° (NNW) 2,374 7.4 -8.5°
Sets 20:10:10 0° 341° (NNW) 3,309 8.1 -8.8°
